Regional Weather Roundup
Issued by NWS Charleston, SC

Home | Current Version | Previous Version | Text Only | Print | Product List | Glossary On
Versions: 1 2 3 4 5 6 7 8 9 10 11 12 13 14 15 16 17 18 19 20 21 22 23 24 25 26 27 28 29 30 31 32 33 34 35 36 37 38 39 40 41 42 43 44 45 46 47 48 49 50
000
ASUS42 KCHS 301313
RWRCHS

REGIONAL WEATHER ROUNDUP
NATIONAL WEATHER SERVICE CHARLESTON SC
900 AM EDT MON MAY 30 2016

NOTE: "FAIR" INDICATES FEW OR NO CLOUDS BELOW 12,000 FEET WITH NO
SIGNIFICANT WEATHER AND/OR OBSTRUCTIONS TO VISIBILITY.

NOT ALL STATIONS ARE QUALITY CONTROLLED. USE DATA WITH CAUTION...
ESPECIALLY DEWPOINT OBSERVATIONS.

SCZ027-030-031-034>040-042>050-301400-
...SOUTHEAST SOUTH CAROLINA...

CITY           SKY/WX    TMP DP  RH WIND       PRES   REMARKS
N CHARLESTON   CLOUDY    72  68  87 W7        29.93R
WATERFRONT PRK   N/A     70  69  97 W6        29.91R
MOUNT PLEASANT PTSUNNY   73  72  94 W9        29.92S
JOHNS ISLAND     N/A     72  70  94 W6        29.93R
PINOPOLIS        N/A     72 -11   3 NW12        N/A
MONCKS CORNER  RAIN      66  64  94 CALM      29.92R
SUMMERVILLE    CLOUDY    70  70 100 W3        29.94R
BEAUFORT MCAS  CLOUDY    69  67  93 NW8       29.96R
BEAUFORT ARPT  CLOUDY    70  68  94 NW10      29.96R
HILTON HEAD IS MOSUNNY   70  66  88 W7        29.97S
WALTERBORO     CLOUDY    70  70 100 NW9       29.96S
ALLENDALE      PTSUNNY   72  66  83 NW6       29.97S

...SOUTHERN MIDLANDS AND PEE DEE...

CITY           SKY/WX    TMP DP  RH WIND       PRES   REMARKS
GEORGETOWN     CLOUDY    72  70  94 CALM      29.92S
KINGSTREE      CLOUDY    72  68  88 NE5       29.92R
ORANGEBURG     CLOUDY    69  66  90 NW8       29.96R
BARNWELL       CLOUDY    72  72 100 W5        29.99R
AIKEN          CLOUDY    68  63  83 N8        30.04R
MANNING        CLOUDY    68  66  94 NW9       29.92S
COLUMBIA       CLOUDY    73  64  73 N7        29.97R
SUMTER         LGT RAIN  68  66  94 N10       29.93S FOG
FLORENCE       LGT RAIN  73  71  93 NE6       29.93S FOG
MYRTLE BEACH   CLOUDY    75  64  69 S12       29.94S
N MYRTLE BEACH PTSUNNY   76  70  82 S13       29.93S

$$

GAZ063-065-086>088-099>101-113>116-118-119-134>141-150-301400-
...SOUTHEAST GEORGIA...

CITY           SKY/WX    TMP DP  RH WIND       PRES   REMARKS
SAVANNAH ARPT  PTSUNNY   73  64  73 NW8       29.97S
HUNTER AAF     CLOUDY    73  68  84 W7        29.95S
FORT STEWART   CLOUDY    71  63  73 NW2       29.97R
STATESBORO     CLOUDY    72  67  84 N9        29.99F
SYLVANIA       CLOUDY    71  66  84 N8        30.00S
CLAXTON        PTSUNNY   71  66  84 W5        30.00S

...CSRA...CENTRAL AND FAR SOUTHEAST GEORGIA...

CITY           SKY/WX    TMP DP  RH WIND       PRES   REMARKS
THOMSON        PTSUNNY   70  67  89 NW3       30.07R
AUGUSTA-BUSH   PTSUNNY   71  64  78 N7        30.00R
AUGUSTA-DANIEL SUNNY     71  62  73 N8        30.01R
SWAINSBORO     FAIR      73  64  73 CALM      30.02R
VIDALIA        MOSUNNY   72  63  73 N3        30.02R
EASTMAN        FAIR      74  66  77 CALM      30.05R
HAZLEHURST     FAIR      76  63  65 CALM      30.01R
ALMA           SUNNY     76  62  62 VRB5      30.02R
WAYCROSS       SUNNY     76  64  67 CALM      30.01R
JESUP          FAIR      68  61  77 CALM      30.01R
BAXLEY         FAIR      77  63  61 CALM      30.01R
BRUNSWICK      CLOUDY    77  66  69 W3        30.00S
SAINT SIMONS   CLOUDY    74  63  68 NW8       29.99S

$$

SCZ027-028-034-036>038-045-046-048>050-GAZ119-141-301400-
...LAKE AND SUPPLEMENTAL COASTAL OBSERVATIONS...

STATION/POSITION TIME  TEMP    WIND        PRES    WAVE   SWELL
                       AIR SEA DIR/SP/G            HT/PER HT/PER/DIR
                 (UTC) (F)     (DEG/KT/KT) (MB)    (FT/S) (FT/S/D)
WINYAH BAY       NOT AVBL
LAKE MURRAY      1200   67     320/  3/  6 1014.9R
ACE BASIN NERRS  NOT AVBL
FORT PULASKI     1200   70 75  280/ 11/ 12 1014.9R
SAPELO ISLAND    1200   72     290/  6     1015.0

$$

ANZ835-935-AMZ111-154-330-350-352-354-370-450-454-472-301400-
...C-MAN AND BUOY OBSERVATIONS...

STATION/POSITION TIME  TEMP    WIND        PRES    WAVE   SWELL
                       AIR SEA DIR/SP/G            HT/PER HT/PER/DIR
                 (UTC) (F)     (DEG/KT/KT) (MB)    (FT/S) (FT/S/D)
BUOY 41004       1250   73 77  250/ 14/ 17 1013.1R   4/ 8   2/ 8
BUOY 41008       1250   74 76  280/ 12/ 14 1014.9R   2/ 8   2/ 70/ 8
FOLLY BEACH CMAN 1200   70     250/  3/  5 1013.4R
CAPERS NEARSHORE 1208   72 76  270/  8/ 12 1012.6F
FRIPP NEARSHORE  1208   70 75  300/ 14/ 17 1013.3R


STATION/POSITION TIME  TEMP    WIND        PRES    WAVE   SWELL
                       AIR SEA DIR/SP/G            HT/PER HT/PER/DIR
                 (UTC) (F)     (DEG/KT/KT) (MB)    (FT/S) (FT/S/D)
5E ST. MARYS GA  1201      78                N/A     2/ 9
FRYING PAN BUOY  1200   78 78  190/ 16/ 19 1014.0R
BUOY 41025       1250   77 80  160/ 23/ 29 1016.0R   6/ 8   2/150/ 8
CAPE LOOKOUT NC  1200   71     250/  4/  6 1015.8R
BUOY 41002       1250   74 75  130/ 12/ 12 1016.8R   4/ 8   3/100/ 8
BUOY 41010       1220   78 79  220/  8/  8 1016.5R
ST AUGUSTINE FL  1300   79 79  260/  6/  7 1017.0R


$$



USA.gov is the U.S. government's official web portal to all federal, state and local government web resources and services.